Tracking 19795 objects as of 20-Jul-2019
HD Live streaming from Space Station
objects crossing your sky now

METEOR M2-2

Track METEOR M2-2 now!
10-day predictions


NORAD ID: 44387
Int'l Code: 2019-038A
Perigee: 819.3 km
Apogee: 823.2 km
Inclination: 98.6 °
Period: 101.2 minutes
Semi major axis: 7192 km
RCS: Unknown
Launch date: July 5, 2019
Source: Commonwealth of Independent States (former USSR) (CIS)
Launch site: VOSTOCHNY COSMODROME (VOSTO)
aabbcc
Your satellite tracking list
Your tracking list is empty




NASA's NSSDC Master Catalog

Two Line Element Set (TLE):
1 44387U 19038A   19200.84942885 -.00000034  00000-0  39114-5 0  9998
2 44387  98.5696 163.5262 0002678  61.0592 299.0855 14.23333002  2070
Source of the keplerian elements: AFSPC